User: anonymous   Login
Location: Caribou
(46.8667°N, 68.0167°W)
Time: 23:40:42
(UTC-04:00)
Language:

SL-08 RB Rocket - Orbit

View from above orbital plane
View from above orbital plane
View from above satellite
View from above satellite

Ground track
Ground track

The orbit data is extracted from the following two-line orbital elements,

1 26387U 00033D   14298.12835762  .00001619  00000-0  29311-3 0  6465
2 26387 098.0924 004.3514 0027657 160.0013 254.8451 14.67451151766143
Epoch (UTC): 25 October 2014 03:04:50
Eccentricity: 0.0027657
inclination: 98.0924°
perigee height: 650 km
apogee height: 689 km
right ascension of ascending node: 4.3514°
argument of perigee: 160.0013°
revolutions per day: 14.67451151
mean anomaly at epoch: 254.8451°
orbit number at epoch: 76614

The dashed part of the orbit path shows where the satellite is in the earth's shadow,  

DLR